GW3250 Weather Reports


Display with metric or nautical units.
time (UTC)temp
F
wind
direction
speed
MPH
gust
MPH
rain 1hr
in
rain 24hr
in
rain mn
in
humidity
%
barometer
mb
20260904062357 68 65 1.0 2.0 0.05 0.32 0.32 99 1010.6
20260904061853 68 120 1.0 1.0 0.07 0.31 0.31 99 1010.6
20260904061349 68 98 4.0 4.0 0.19 0.31 0.31 99 1010.7
20260904060845 68 37 1.0 2.0 0.24 0.30 0.30 99 1011.1
20260904060341 69 157 0.0 0.0 0.12 0.28 0.28 99 1011.1
20260904055836 68 141 0.0 1.0 0.00 0.26 0.26 99 1011.1
20260904055331 68 152 0.0 0.0 0.00 0.26 0.26 99 1010.9
20260904054827 68 138 0.0 0.0 0.07 0.26 0.26 99 1010.5
20260904054323 68 142 1.0 1.0 1.02 0.26 0.26 99 1010.5
20260904053818 69 169 1.0 1.0 1.44 0.25 0.25 99 1010.4
20260904053317 70 129 3.0 3.0 0.90 0.15 0.15 99 1010.9
20260904052813 70 192 1.0 1.0 0.05 0.01 0.01 99 1010.9
20260904052309 70 157 0.0 0.0 0.00 0.00 0.00 99 1010.6
20260904051805 70 157 0.0 0.0 0.00 0.00 0.00 99 1010.6
20260904051300 70 157 0.0 0.0 0.00 0.00 0.00 99 1010.6
20260904050750 70 157 0.0 0.0 0.00 0.00 0.00 99 1010.8
20260904050246 70 157 0.0 0.0 0.00 0.00 0.00 99 1010.7
20260904045741 70 157 0.0 0.0 0.00 0.00 0.00 99 1010.5
20260904045235 70 157 0.0 0.0 0.00 0.00 0.00 99 1010.7
20260904044730 70 157 0.0 0.0 0.00 0.00 0.00 99 1010.5
20260904044221 70 157 0.0 0.0 0.00 0.00 0.00 99 1010.4
20260904043717 70 156 1.0 1.0 0.00 0.00 0.00 99 1010.6
20260904043213 70 157 0.0 0.0 0.00 0.00 0.00 99 1010.7
20260904042708 70 157 0.0 0.0 0.00 0.00 0.00 99 1010.6
20260904042205 70 157 0.0 0.0 0.00 0.00 0.00 99 1010.8
20260904041704 71 157 0.0 0.0 0.00 0.00 0.00 99 1011.0
20260904041201 71 157 0.0 0.0 0.00 0.00 0.00 99 1011.1
20260904040656 71 157 0.0 0.0 0.00 0.00 0.00 99 1011.1
20260904040152 71 157 1.0 1.0 0.00 0.00 0.00 99 1011.1
20260904035648 71 157 0.0 1.0 0.00 0.26 0.26 99 1011.2
20260904035143 71 157 0.0 0.0 0.00 0.26 0.26 99 1011.2
20260904034642 71 157 0.0 0.0 0.00 0.26 0.26 99 1011.4
20260904034138 71 157 0.0 1.0 0.00 0.26 0.26 99 1011.6
20260904033634 70 157 0.0 0.0 0.00 0.26 0.26 99 1011.5
20260904033131 71 157 0.0 0.0 0.00 0.26 0.26 99 1011.4
20260904032626 70 157 0.0 0.0 0.00 0.26 0.26 99 1011.0
20260904032125 70 157 0.0 0.0 0.00 0.26 0.26 99 1011.0
20260904031624 71 157 0.0 0.0 0.00 0.26 0.26 99 1010.9
20260904031120 71 157 1.0 1.0 0.00 0.26 0.26 99 1010.9
20260904030616 71 157 0.0 0.0 0.00 0.26 0.26 99 1010.9
20260904030111 71 157 0.0 1.0 0.00 0.26 0.26 99 1010.7
20260904025607 71 157 0.0 0.0 0.00 0.26 0.26 99 1010.9
20260904025101 71 157 0.0 1.0 0.00 0.26 0.26 99 1011.1
20260904024557 71 157 1.0 1.0 0.00 0.26 0.26 99 1011.4
20260904024052 71 157 0.0 0.0 0.00 0.26 0.26 99 1011.4
20260904023548 71 157 0.0 0.0 0.00 0.26 0.26 99 1011.7
20260904023044 71 157 0.0 1.0 0.00 0.26 0.26 99 1011.6
20260904022539 71 157 0.0 0.0 0.00 0.26 0.26 99 1011.6
20260904022036 71 157 0.0 0.0 0.00 0.26 0.26 99 1011.6
20260904021531 72 156 0.0 0.0 0.24 0.26 0.26 99 1011.7
20260904021026 72 157 0.0 0.0 0.54 0.26 0.26 99 1012.0
20260904020521 72 183 0.0 0.0 0.35 0.23 0.23 99 1012.3
20260904020021 72 187 2.0 3.0 0.00 0.17 0.17 99 1012.3
20260904015515 72 150 0.0 0.0 0.00 0.17 0.17 99 1012.1
20260904015014 72 150 0.0 0.0 0.00 0.17 0.17 99 1012.2
20260904014508 72 150 0.0 0.0 0.00 0.17 0.17 99 1012.2
20260904014004 72 150 0.0 0.0 0.00 0.17 0.17 99 1012.0
20260904013500 72 150 0.0 0.0 0.00 0.17 0.17 99 1012.0
20260904012956 72 150 1.0 1.0 0.00 0.17 0.17 99 1012.1
20260904012456 72 150 1.0 1.0 0.00 0.17 0.17 99 1012.2
20260904011950 72 150 0.0 0.0 0.00 0.17 0.17 99 1012.1
20260904011445 72 149 0.0 0.0 0.00 0.17 0.17 99 1012.1
20260904010940 72 159 0.0 0.0 0.00 0.17 0.17 99 1012.1
20260904010437 72 176 0.0 0.0 0.00 0.17 0.17 99 1012.0
20260904005931 72 178 1.0 1.0 0.00 0.17 0.17 99 1012.2
20260904005427 72 154 1.0 1.0 0.00 0.17 0.17 99 1012.2
20260904004921 72 154 0.0 0.0 0.00 0.17 0.17 99 1012.0
20260904004418 72 154 0.0 1.0 0.00 0.17 0.17 99 1011.7
20260904003913 73 154 0.0 0.0 0.00 0.17 0.17 99 1011.6
20260904003409 72 153 1.0 1.0 0.00 0.17 0.17 99 1011.3
20260904002903 72 152 0.0 0.0 0.00 0.17 0.17 99 1011.3
20260904002400 72 152 1.0 1.0 0.00 0.17 0.17 99 1011.3
20260904001859 72 153 0.0 1.0 0.00 0.17 0.17 99 1011.7
20260904001355 72 152 0.0 0.0 0.00 0.17 0.17 99 1011.7
20260904000849 72 152 0.0 0.0 0.00 0.17 0.17 99 1011.7
20260904000348 72 152 0.0 0.0 0.00 0.17 0.17 99 1011.8
20260903235843 73 152 0.0 0.0 0.00 0.17 0.17 99 1011.6
20260903235339 73 152 0.0 0.0 0.00 0.17 0.17 99 1011.5
20260903234838 72 152 0.0 0.0 0.00 0.17 0.17 99 1011.7
20260903234335 73 152 0.0 0.0 0.00 0.17 0.17 99 1011.5
20260903233831 73 152 0.0 0.0 0.00 0.17 0.17 99 1011.6
20260903233327 73 152 0.0 0.0 0.00 0.17 0.17 99 1011.6
20260903232826 73 152 0.0 0.0 0.00 0.17 0.17 99 1011.4
20260903232321 73 152 0.0 0.0 0.00 0.17 0.17 99 1011.2
20260903231820 73 152 0.0 0.0 0.00 0.17 0.17 99 1011.2
20260903231316 73 152 0.0 0.0 0.00 0.17 0.17 99 1011.4
20260903230811 74 152 0.0 0.0 0.00 0.17 0.17 99 1011.4
20260903230307 74 152 0.0 0.0 0.00 0.17 0.17 99 1011.2
20260903225803 74 152 0.0 0.0 0.00 0.17 0.17 98 1011.1
20260903225258 75 152 0.0 0.0 0.00 0.17 0.17 98 1010.9
20260903224755 75 152 0.0 0.0 0.00 0.17 0.17 97 1011.0
20260903224250 75 145 0.0 0.0 0.00 0.17 0.17 97 1011.1
20260903223746 76 145 0.0 1.0 0.00 0.17 0.17 96 1010.9
20260903223244 76 145 0.0 0.0 0.00 0.17 0.17 96 1011.0
20260903222739 77 145 0.0 0.0 0.00 0.17 0.17 96 1011.2
20260903222238 77 145 0.0 0.0 0.00 0.17 0.17 95 1011.3
20260903221733 77 145 0.0 0.0 0.00 0.17 0.17 94 1011.1
20260903221232 77 145 0.0 0.0 0.00 0.17 0.17 93 1011.3
20260903220730 77 145 0.0 0.0 0.00 0.17 0.17 94 1011.3
20260903220225 78 145 0.0 0.0 0.00 0.17 0.17 92 1011.2
20260903215724 78 145 1.0 1.0 0.00 0.17 0.17 91 1011.4
20260903215220 79 145 1.0 1.0 0.00 0.17 0.17 90 1011.5
20260903214718 78 144 0.0 0.0 0.00 0.17 0.17 90 1011.4
20260903214214 78 144 0.0 0.0 0.00 0.17 0.17 91 1011.4
20260903213708 79 144 0.0 0.0 0.00 0.17 0.17 88 1011.4
20260903213204 80 144 1.0 1.0 0.00 0.17 0.17 86 1011.2
20260903212700 81 144 0.0 0.0 0.00 0.17 0.17 85 1011.4
20260903212156 80 144 0.0 0.0 0.00 0.17 0.17 85 1011.3
20260903211649 80 144 0.0 0.0 0.00 0.17 0.17 86 1011.3
20260903211147 80 144 0.0 0.0 0.00 0.17 0.17 83 1011.4
20260903210642 81 144 0.0 0.0 0.00 0.17 0.17 83 1011.4
20260903210137 83 143 0.0 1.0 0.00 0.17 0.17 79 1011.3
20260903205637 82 212 0.0 1.0 0.00 0.17 0.17 81 1011.2
20260903205130 83 212 0.0 1.0 0.00 0.17 0.17 81 1011.4
20260903204626 81 212 0.0 0.0 0.00 0.17 0.17 84 1011.4
20260903204123 80 211 0.0 1.0 0.00 0.17 0.17 84 1011.5
20260903203617 80 211 0.0 0.0 0.00 0.17 0.17 85 1011.4
20260903203112 80 211 1.0 2.0 0.00 0.17 0.17 85 1011.5
20260903202608 81 209 0.0 0.0 0.00 0.17 0.17 84 1011.3
20260903202102 83 199 1.0 2.0 0.00 0.17 0.17 80 1011.3
20260903201556 83 199 0.0 0.0 0.00 0.17 0.17 80 1011.2
20260903201050 82 249 1.0 1.0 0.00 0.17 0.17 85 1011.3
20260903200546 83 196 1.0 1.0 0.00 0.17 0.17 79 1011.4
20260903200041 82 179 1.0 1.0 0.00 0.17 0.17 79 1011.4
20260903195537 82 235 3.0 3.0 0.00 0.17 0.17 80 1011.3
20260903195032 82 233 0.0 1.0 0.00 0.17 0.17 79 1011.4
20260903194527 82 223 0.0 1.0 0.00 0.17 0.17 83 1011.6
20260903194022 82 248 1.0 2.0 0.00 0.17 0.17 83 1011.5
20260903193519 82 171 1.0 2.0 0.00 0.17 0.17 83 1011.7
20260903193014 82 222 3.0 3.0 0.00 0.17 0.17 79 1011.7
20260903192510 82 178 1.0 1.0 0.00 0.17 0.17 83 1011.8
20260903192004 82 129 1.0 1.0 0.00 0.17 0.17 79 1011.9
20260903191500 82 192 3.0 3.0 0.00 0.17 0.17 78 1011.7
20260903190955 81 125 0.0 0.0 0.00 0.17 0.17 85 1012.0
20260903190454 80 175 0.0 1.0 0.00 0.17 0.17 85 1012.0
20260903185948 80 141 1.0 1.0 0.00 0.17 0.17 85 1012.1
20260903185445 79 141 0.0 1.0 0.00 0.17 0.17 87 1012.0
20260903184944 78 166 0.0 0.0 0.00 0.17 0.17 86 1012.0
20260903184442 79 137 0.0 1.0 0.00 0.17 0.17 86 1012.2
20260903183936 80 90 2.0 2.0 0.00 0.17 0.17 84 1012.1
20260903183430 82 109 1.0 1.0 0.00 0.17 0.17 82 1012.3
20260903182930 81 178 1.0 1.0 0.00 0.17 0.17 85 1012.1
20260903182429 82 187 4.0 6.0 0.00 0.17 0.17 81 1012.0
20260903181925 81 201 3.0 3.0 0.00 0.17 0.17 83 1012.3
20260903181419 82 195 5.0 6.0 0.00 0.17 0.17 79 1012.1
20260903180918 82 121 1.0 2.0 0.00 0.17 0.17 83 1012.4
20260903180413 81 219 1.0 1.0 0.00 0.17 0.17 84 1012.2
20260903175913 81 233 1.0 1.0 0.00 0.17 0.17 82 1012.2
20260903175407 81 204 4.0 6.0 0.00 0.17 0.17 81 1012.4
20260903174901 82 198 1.0 2.0 0.00 0.17 0.17 85 1012.2
20260903174356 81 189 1.0 1.0 0.00 0.17 0.17 81 1012.4
20260903173850 80 214 2.0 2.0 0.00 0.17 0.17 84 1012.4
20260903173346 81 221 2.0 3.0 0.00 0.17 0.17 84 1012.6
20260903172842 80 237 3.0 3.0 0.00 0.17 0.17 86 1012.5
20260903172336 79 213 4.0 6.0 0.00 0.17 0.17 85 1012.1
20260903171832 79 177 3.0 3.0 0.00 0.17 0.17 81 1012.5
20260903171327 79 179 4.0 4.0 0.00 0.17 0.17 85 1012.6
20260903170826 79 203 0.0 1.0 0.00 0.17 0.17 86 1012.7
20260903170322 79 226 4.0 4.0 0.00 0.17 0.17 86 1012.7
20260903165820 79 206 1.0 2.0 0.00 0.17 0.17 86 1012.6
20260903165314 78 234 4.0 6.0 0.00 0.17 0.17 86 1012.6
20260903164814 78 208 2.0 2.0 0.00 0.17 0.17 88 1012.7
20260903164310 77 199 1.0 1.0 0.00 0.17 0.17 86 1012.7
20260903163809 77 186 1.0 1.0 0.00 0.17 0.17 88 1012.8
20260903163306 77 151 2.0 4.0 0.00 0.17 0.17 86 1013.0
20260903162801 77 196 2.0 3.0 0.00 0.17 0.17 90 1013.1
20260903162257 78 240 2.0 2.0 0.00 0.17 0.17 88 1012.8
20260903161753 78 105 1.0 2.0 0.00 0.17 0.17 87 1013.1
20260903161248 76 116 0.0 1.0 0.00 0.17 0.17 90 1013.1
20260903160744 76 202 4.0 4.0 0.00 0.17 0.17 91 1013.2
20260903160243 75 224 1.0 2.0 0.00 0.17 0.17 92 1013.4
20260903155741 75 319 2.0 2.0 0.00 0.17 0.17 91 1013.4
20260903155237 73 203 2.0 2.0 0.00 0.17 0.17 95 1013.3
20260903154732 73 186 1.0 2.0 0.00 0.17 0.17 96 1013.8
20260903154228 72 162 0.0 1.0 0.00 0.17 0.17 95 1013.5
20260903153723 72 181 0.0 0.0 0.00 0.17 0.17 97 1013.6
20260903153219 72 196 2.0 2.0 0.00 0.17 0.17 97 1013.6
20260903152715 71 182 0.0 1.0 0.00 0.17 0.17 98 1013.6
20260903152212 71 177 0.0 1.0 0.00 0.17 0.17 99 1013.7
20260903151711 71 177 0.0 0.0 0.00 0.17 0.17 99 1013.6
20260903151206 71 178 2.0 2.0 0.00 0.17 0.17 99 1013.8
20260903150701 72 174 0.0 0.0 0.00 0.17 0.17 99 1013.9
20260903150155 71 180 1.0 1.0 0.00 0.17 0.17 98 1014.0
20260903145650 71 194 0.0 1.0 0.00 0.17 0.17 99 1013.9
20260903145145 71 210 2.0 2.0 0.00 0.17 0.17 99 1013.9
20260903144643 71 193 2.0 2.0 0.00 0.17 0.17 99 1013.8
20260903144140 71 207 2.0 2.0 0.00 0.17 0.17 99 1014.1
20260903143636 71 189 1.0 2.0 0.00 0.17 0.17 99 1013.9
20260903143131 71 177 2.0 2.0 0.00 0.17 0.17 99 1013.9
20260903142627 71 194 2.0 2.0 0.00 0.17 0.17 99 1013.8
20260903142123 70 193 2.0 2.0 0.00 0.17 0.17 99 1013.8
20260903141619 70 190 1.0 2.0 0.00 0.17 0.17 99 1013.8
20260903141114 69 185 0.0 0.0 0.00 0.17 0.17 99 1013.7
20260903140610 69 188 1.0 1.0 0.00 0.17 0.17 99 1013.8
20260903140105 68 170 1.0 1.0 0.00 0.17 0.17 99 1013.6
20260903135601 68 171 0.0 1.0 0.00 0.17 0.17 99 1013.7
20260903135101 67 171 0.0 1.0 0.00 0.17 0.17 99 1013.6
20260903134559 67 171 1.0 1.0 0.00 0.17 0.17 99 1013.4
20260903134055 67 171 0.0 1.0 0.00 0.17 0.17 99 1013.6
20260903133553 67 171 1.0 1.0 0.00 0.17 0.17 99 1013.5
20260903133049 67 170 1.0 1.0 0.00 0.17 0.17 99 1013.3
20260903132543 68 170 0.0 1.0 0.00 0.17 0.17 99 1013.2
20260903132038 67 170 0.0 1.0 0.00 0.17 0.17 99 1013.5
20260903131533 66 170 1.0 1.0 0.00 0.17 0.17 99 1013.5
20260903131032 66 170 1.0 1.0 0.00 0.17 0.17 99 1013.4
20260903130526 66 169 1.0 1.0 0.00 0.17 0.17 99 1013.6
20260903130021 66 170 1.0 1.0 0.00 0.17 0.17 99 1013.4
20260903125520 66 169 1.0 1.0 0.00 0.17 0.17 99 1013.4
20260903125015 66 169 0.0 0.0 0.00 0.17 0.17 99 1013.7
20260903124509 65 169 0.0 0.0 0.00 0.17 0.17 99 1013.5
20260903124008 65 169 0.0 0.0 0.00 0.17 0.17 99 1013.5
20260903123504 65 169 0.0 0.0 0.00 0.17 0.17 99 1013.4
20260903123002 65 169 0.0 0.0 0.00 0.17 0.17 99 1013.3
20260903122502 65 169 0.0 0.0 0.00 0.17 0.17 99 1013.3
20260903121955 65 169 0.0 0.0 0.00 0.17 0.17 99 1013.3
20260903121450 65 169 0.0 0.0 0.00 0.17 0.17 99 1013.3
20260903120947 65 169 1.0 1.0 0.00 0.17 0.17 99 1013.2
20260903120445 64 169 0.0 0.0 0.00 0.17 0.17 99 1013.1
20260903115944 64 169 0.0 0.0 0.00 0.17 0.17 99 1013.4
20260903115444 64 114 1.0 1.0 0.00 0.17 0.17 99 1013.3
20260903114939 64 114 0.0 0.0 0.00 0.17 0.17 99 1013.3
20260903114434 64 114 0.0 0.0 0.00 0.17 0.17 99 1013.6
20260903113930 64 114 0.0 0.0 0.00 0.17 0.17 99 1013.5
20260903113426 64 114 0.0 0.0 0.00 0.17 0.17 99 1013.5
20260903112921 64 114 0.0 0.0 0.00 0.17 0.17 99 1013.4
20260903112416 63 114 0.0 1.0 0.00 0.17 0.17 99 1013.7
20260903111916 63 114 0.0 0.0 0.00 0.17 0.17 99 1013.5
20260903111415 63 114 1.0 1.0 0.00 0.17 0.17 99 1013.7
20260903110911 63 114 0.0 0.0 0.00 0.17 0.17 99 1013.8
20260903110407 63 114 0.0 0.0 0.00 0.17 0.17 99 1013.8
20260903105901 63 113 0.0 0.0 0.00 0.17 0.17 99 1013.7
20260903105357 63 113 0.0 0.0 0.00 0.17 0.17 99 1014.1
20260903104856 63 113 0.0 1.0 0.00 0.17 0.17 99 1014.0
20260903104351 63 113 1.0 1.0 0.00 0.17 0.17 99 1014.0
20260903103848 63 113 0.0 0.0 0.00 0.17 0.17 99 1014.1
20260903103344 63 113 0.0 0.0 0.00 0.17 0.17 99 1014.0
20260903102839 63 113 0.0 0.0 0.00 0.17 0.17 99 1013.9
20260903102338 63 113 1.0 1.0 0.00 0.17 0.17 99 1014.1
20260903101833 63 113 0.0 0.0 0.00 0.17 0.17 99 1014.2
20260903101328 63 113 0.0 0.0 0.00 0.17 0.17 99 1013.7
20260903100824 63 113 1.0 1.0 0.00 0.17 0.17 99 1013.6
20260903100323 63 113 1.0 1.0 0.00 0.17 0.17 99 1013.5
20260903095815 64 113 1.0 1.0 0.00 0.17 0.17 99 1013.7
20260903095309 63 113 0.0 0.0 0.00 0.17 0.17 99 1014.2
20260903094805 63 113 0.0 0.0 0.00 0.17 0.17 99 1013.8
20260903094259 63 113 0.0 0.0 0.00 0.17 0.17 99 1013.9
20260903093755 63 113 0.0 0.0 0.00 0.17 0.17 99 1013.9
20260903093250 63 113 0.0 0.0 0.00 0.17 0.17 99 1013.6
20260903092750 64 113 0.0 0.0 0.00 0.17 0.17 99 1013.6
20260903092245 63 100 0.0 0.0 0.00 0.17 0.17 99 1013.8
20260903091743 63 99 0.0 0.0 0.00 0.17 0.17 99 1013.9
20260903091232 63 99 0.0 0.0 0.00 0.17 0.17 99 1013.7
20260903090727 63 99 0.0 0.0 0.00 0.17 0.17 99 1013.8
20260903090225 63 99 0.0 0.0 0.00 0.17 0.17 99 1013.7
20260903085720 63 99 0.0 0.0 0.00 0.17 0.17 99 1013.3
20260903085215 63 99 0.0 0.0 0.00 0.17 0.17 99 1013.8
20260903084713 64 99 0.0 0.0 0.00 0.17 0.17 99 1013.6
20260903084208 64 98 0.0 0.0 0.00 0.17 0.17 99 1013.3
20260903083703 64 163 0.0 0.0 0.00 0.17 0.17 99 1013.3
20260903083203 64 163 0.0 0.0 0.00 0.17 0.17 99 1013.5
20260903082657 64 163 1.0 1.0 0.00 0.17 0.17 99 1013.5
20260903082153 64 164 0.0 0.0 0.00 0.17 0.17 99 1013.5
20260903081648 64 184 0.0 0.0 0.00 0.17 0.17 99 1013.8
20260903081144 64 185 0.0 0.0 0.00 0.17 0.17 99 1013.8
20260903080640 64 185 0.0 0.0 0.00 0.17 0.17 99 1013.6
20260903080137 64 175 0.0 0.0 0.00 0.17 0.17 99 1013.6
20260903075631 64 189 0.0 0.0 0.07 0.17 0.17 99 1013.4
20260903075126 64 197 0.0 0.0 0.07 0.17 0.17 99 1013.3
20260903074625 64 182 0.0 1.0 0.07 0.17 0.17 99 1013.2
20260903074120 64 170 1.0 1.0 0.05 0.16 0.16 99 1013.2
20260903073616 64 171 0.0 0.0 0.05 0.16 0.16 99 1013.4
20260903073111 64 206 1.0 1.0 0.07 0.15 0.15 99 1013.5
20260903072607 64 181 0.0 0.0 0.07 0.15 0.15 99 1013.5
20260903072103 64 181 0.0 0.0 0.00 0.14 0.14 99 1013.8
20260903071600 64 181 0.0 0.0 0.00 0.14 0.14 99 1013.9
20260903071059 64 181 0.0 0.0 0.00 0.14 0.14 99 1014.1
20260903070554 64 208 0.0 0.0 0.00 0.14 0.14 99 1014.2
20260903070050 64 208 0.0 0.0 0.00 0.14 0.14 99 1013.8
20260903065548 64 208 1.0 1.0 0.00 0.14 0.14 99 1014.2
20260903065043 64 189 0.0 0.0 0.00 0.14 0.14 99 1014.2
20260903064543 64 189 0.0 1.0 0.00 0.14 0.14 99 1014.4
20260903064038 64 189 1.0 1.0 0.00 0.14 0.14 99 1014.2
20260903063533 64 189 0.0 0.0 0.00 0.14 0.14 99 1014.5
20260903063029 64 189 0.0 0.0 0.00 0.14 0.14 99 1014.3